Simultaneous Nadir Overpasses (SNOs) Predictions

Prediction of SNOs between FY3D and AQUA Satellite Orbit:

Table of predicted SNOs for the next 14.0 days since TLE Epoch: 1/28/2023
Index Date (FY3D) Time (FY3D) Lat,Lon (FY3D) SZA (FY3D ) Date (AQUA) Time (AQUA) Lat,Lon (AQUA) SZA (AQUA ) Distance(km) Time Diff (sec)
1 01/28/2023 05:41:20 -78.01,-102.37 83.09 01/28/2023 05:41:54 -78.01,-102.33 83.11 0.95 34
2 01/28/2023 06:31:49 77.32, 68.33 96.02 01/28/2023 06:31:05 77.33, 68.25 96.05 2.30 44
3 01/30/2023 20:17:46 -77.84, 39.44 84.02 01/30/2023 20:18:05 -77.84, 39.40 84.02 1.21 19
4 01/30/2023 21:08:21 77.39,-151.09 95.42 01/30/2023 21:07:21 77.39,-151.02 95.42 1.82 60
5 02/02/2023 10:54:12 -77.67,-178.81 84.96 02/02/2023 10:54:15 -77.68,-178.91 84.95 2.66 3
6 02/02/2023 11:43:11 72.69, 4.24 89.44 02/02/2023 11:41:58 72.55, 3.22 89.32 37.38 73
7 02/05/2023 00:40:10 78.27, 151.62 95.07 02/05/2023 00:41:15 78.26, 151.71 95.03 2.22 65
8 02/05/2023 01:30:44 -77.79, -38.52 85.57 02/05/2023 01:30:29 -77.78, -38.41 85.58 2.79 15
9 02/07/2023 15:16:37 78.16, -66.88 94.13 02/07/2023 15:17:24 78.16, -66.80 94.10 2.02 47
10 02/07/2023 16:07:11 -77.68, 102.94 86.51 02/07/2023 16:06:38 -77.68, 103.04 86.52 2.72 33
11 02/10/2023 05:53:05 78.10, 74.36 93.22 02/10/2023 05:53:33 78.10, 74.46 93.20 2.45 28



Historial Predications of SNOs between FY3D and AQUA
